Hourly Data Report for April 02, 2021

NANAIMO A
BRITISH COLUMBIA
Current Station Operator: NAVCAN

49°03'16.000" N
123°52'12.000" W
28.00 m
1025365
YCD

Download Data

Hourly Data (April 2021)
Hourly Data Report for April 2, 2021
TIME
LST
Temp Definition
°C
Dew Point Definition
°C
Rel Hum Definition
%
Precip. Amount Definition
mm

Wind Dir Definition
10's deg

Wind Spd Definition
km/h
Visibility Definition
km
Stn Press Definition
kPa
Hmdx Definition


Wind Chill Definition


Weather Definition


00:00 2.2 0.2 87 LegendMM 29 2 LegendMM 101.10     LegendNANA
01:00 2.4 0.3 86 LegendMM 26 7 LegendMM 101.11     LegendNANA
02:00 2.2 0.2 87 LegendMM 28 6 LegendMM 101.13     LegendNANA
03:00 4.4 -1.4 66 LegendMM 27 9 LegendMM 101.17     LegendNANA
04:00 4.4 -1.8 64 LegendMM 26 10 LegendMM 101.20     LegendNANA
05:00 4.3 -2.1 63 LegendMM 26 11 LegendMM 101.26     LegendNANA
06:00 2.9 -1.5 72 LegendMM 19 7 LegendMM 101.29     LegendNANA
07:00 3.0 -1.0 75 LegendMM 20 7 LegendMM 101.35     LegendNANA
08:00 5.7 -1.2 61 LegendMM 22 7 LegendMM 101.36     LegendNANA
09:00 7.7 -0.9 54 LegendMM 10 7 LegendMM 101.38     LegendNANA
10:00 8.5 0.1 55 LegendMM 3 5 LegendMM 101.43     LegendNANA
11:00 9.7 0.1 51 LegendMM 8 9 LegendMM 101.49     LegendNANA
12:00 10.9 0.2 47 LegendMM 6 13 LegendMM 101.52     LegendNANA
13:00 11.9 0.6 46 LegendMM 5 21 LegendMM 101.51     LegendNANA
14:00 10.7 1.1 51 LegendMM 4 16 LegendMM 101.54     LegendNANA
15:00 10.7 1.1 51 LegendMM 5 18 LegendMM 101.56     LegendNANA
16:00 9.9 2.2 59 LegendMM 6 13 LegendMM 101.57     LegendNANA
17:00 9.4 2.4 62 LegendMM 7 8 LegendMM 101.59     LegendNANA
18:00 9.1 2.5 63 LegendMM 7 8 LegendMM 101.60     LegendNANA
19:00 7.6 2.8 71 LegendMM 8 2 LegendMM 101.60     LegendNANA
20:00 6.9 3.2 77 LegendMM 26 4 LegendMM 101.63     LegendNANA
21:00 5.8 3.3 84 LegendMM 21 3 LegendMM 101.67     LegendNANA
22:00 4.5 2.3 85 LegendMM 22 4 LegendMM 101.68     LegendNANA
23:00 3.4 1.2 86 LegendMM 16 2 LegendMM 101.67     LegendNANA

Notes on Data Quality.

Legend

  • E = Estimated
  • M = Missing
  • NA = Not Available*
  • [empty] = Indicates an unobserved value
Date modified: